Location: Deurze
(52.9838°N, 6.6090°E)
Time: 19:25:37
(UTC+00:00)

Cosmos 1825 Rocket - Pass Details

Date: 11 March 2026
Orbit: 596 x 624 km, 82.5° (Epoch: 20 April)

Event Time Altitude Azimuth Distance (km) Brightness Sun altitude
Rises 19:10:27 0° 199° (SSW) 2,888 7.0 -15.7°
Reaches altitude 10° 19:12:41 10° 202° (SSW) 1,989 6.2 -16.0°
Maximum altitude 19:17:03 62° 284° (WNW) 706 4.1 -16.7°
Drops below altitude 10° 19:21:29 10° 6° (N) 2,010 6.3 -17.3°
Sets 19:23:45 0° 9° (N) 2,922 7.1 -17.6°
